Location: Saint-Restitut
(44.3351°N, 4.7915°E)
Time: 01:50:23
(UTC+00:00)

SL-16 R/B - Pass Details

Date: 03 February 2023
Orbit: 842 x 846 km, 71.0° (Epoch: 27 March)

Event Time Altitude Azimuth Distance (km) Brightness Sun altitude
Rises 18:29:40 0° 225° (SW) 3,388 6.2 -17.6°
Reaches altitude 10° 18:32:14 10° 232° (SW) 2,457 5.5 -18.0°
Maximum altitude 18:37:34 42° 303° (WNW) 1,188 3.3 -19.0°
Drops below altitude 10° 18:42:56 10° 14° (NNE) 2,473 4.5 -19.9°
Enters shadow 18:44:38 - 19° (NNE) 3,082 4.9 -20.2°
